Tracking 20712 objects as of 28-May-2020
HD Live streaming from Space Station
objects crossing your sky now

COSMOS 970 DEB

Track COSMOS 970 DEB now!
10-day predictions


NORAD ID: 10885
Int'l Code: 1977-121AG
Perigee: 969.5 km
Apogee: 1,066.3 km
Inclination: 65.8 °
Period: 105.3 minutes
Semi major axis: 7388 km
RCS: 0.0086 m2 (small)
Launch date: December 21, 1977
Source: Commonwealth of Independent States (former USSR) (CIS)
Launch site: TYURATAM MISSILE AND SPACE COMPLEX (TTMTR)

Note: This is SATELLITE DEBRIS
aabbcc
Your satellite tracking list
Your tracking list is empty




NASA's NSSDC Master Catalog

Two Line Element Set (TLE):
1 10885U 77121AG  20148.42620698 +.00000115 +00000-0 +22921-3 0  9998
2 10885 065.7933 072.2596 0065499 000.4010 099.9945 13.66879629104957
Source of the keplerian elements: AFSPC